Location: Champseau
(45.8333°N, 1.7667°E)
Time: 07:26:59
(UTC+00:00)

Cosmos 2237 Rocket - Pass Details

Date: 18 April 2021
Orbit: 836 x 849 km, 71.0° (Epoch: 05 May)

Event Time Altitude Azimuth Distance (km) Brightness Sun altitude
Rises 19:33:55 0° 340° (NNW) 3,406 6.1 -8.9°
Reaches altitude 10° 19:36:47 10° 352° (N) 2,466 5.1 -9.4°
Maximum altitude 19:41:30 27° 49° (NE) 1,580 3.4 -10.1°
Enters shadow 19:45:34 13° 102° (ESE) 2,262 3.8 -10.7°
